Driggs, ID

11:11 AM MST on November 20, 2017 (GMT -0700)
Driggs

Weather History for KDIJ - October, 2011

Change the Weather History Date:

Saturday, October 8, 2011

  Actual Average (KJAC) Record (KJAC)
Temperature  
Mean Temperature 40 °F -  
Max Temperature 48 °F 59 °F 75 °F (1980)
Min Temperature 31 °F 24 °F 13 °F (1968)
Degree Days  
Heating Degree Days 26    
Moisture  
Dew Point 33 °F    
Average Humidity 88    
Maximum Humidity 100    
Minimum Humidity 59    
Precipitation  
Precipitation 0.04 in - - ()
Sea Level Pressure  
Sea Level Pressure 30.16 in    
Wind  
Wind Speed 4 mph (ENE)    
Max Wind Speed 7 mph    
Max Gust Speed -    
Visibility 6 miles    
Events Fog , Rain    
Averages and records for this station are not official NWS values.
T = Trace of Precipitation, MM = Missing Value Source: NWS Daily Summary

Daily Weather History Graph

Daily Weather History Graph

Search for Another Location

Airport or City:

Trip Planner

Search our weather history database for the weather conditions in past years. The results will help you decide how hot, cold, wet, or windy it might be!

Date:

Astronomy

Oct. 08, 2011 Rise Set
Actual Time 7:29 AM MDT 6:53 PM MDT
Civil Twilight 7:01 AM MDT 7:21 PM MDT
Nautical Twilight 6:27 AM MDT 7:55 PM MDT
Astronomical Twilight 5:54 AM MDT 8:28 PM MDT
Moon 5:09 PM MDT (10/8) 4:15 AM MDT (10/8)
Length of Visible Light 12h 20m
Length of Day
11h 23m
Waxing Gibbous, 90% of the Moon is Illuminated
Oct 8
Waxing Gibbous
Oct 11
Full
Oct 19
Last Quarter
Oct 26
New
Nov 2
First Quarter

Hourly Weather History & Observations

Time (MDT) Temp. Windchill Dew Point Humidity Pressure Visibility Wind Dir Wind Speed Gust Speed Precip Events Conditions
12:56 AM 36.0 °F 31.1 °F 34.0 °F 93% 30.04 in 4.0 mi NNW 5.8 mph - 0.01 in Rain Light Rain
1:03 AM 35.6 °F 29.9 °F 33.8 °F 93% 30.09 in 4.0 mi NNW 6.9 mph - 0.01 in Rain Light Rain
1:12 AM 35.6 °F 29.9 °F 33.8 °F 93% 30.09 in 4.0 mi NW 6.9 mph - 0.02 in Rain Light Rain
1:56 AM 34.9 °F 30.8 °F 34.0 °F 97% 30.06 in 6.0 mi NE 4.6 mph - 0.02 in   Overcast
2:56 AM 34.9 °F 32.0 °F 32.9 °F 92% 30.07 in 10.0 mi NNE 3.5 mph - 0.00 in   Overcast
3:30 AM 35.6 °F 32.8 °F 33.8 °F 93% 30.11 in 9.0 mi NNE 3.5 mph - 0.01 in   Overcast
3:56 AM 34.0 °F 29.8 °F 32.9 °F 96% 30.08 in 9.0 mi NE 4.6 mph - 0.01 in   Overcast
4:28 AM 33.8 °F 30.8 °F 32.0 °F 93% 30.11 in 10.0 mi NE 3.5 mph - N/A   Overcast
4:45 AM 33.8 °F 30.8 °F 32.0 °F 93% 30.11 in 10.0 mi East 3.5 mph - N/A   Overcast
4:56 AM 32.0 °F 28.7 °F 32.0 °F 100% 30.08 in 10.0 mi East 3.5 mph - N/A   Mostly Cloudy
5:06 AM 32.0 °F 28.7 °F 32.0 °F 100% 30.12 in 10.0 mi East 3.5 mph - N/A   Mostly Cloudy
5:56 AM 32.9 °F 29.8 °F 32.0 °F 96% 30.08 in 10.0 mi North 3.5 mph - N/A   Overcast
6:07 AM 33.8 °F 30.8 °F 32.0 °F 93% 30.12 in 6.0 mi North 3.5 mph - N/A   Overcast
6:56 AM 34.0 °F - 32.9 °F 96% 30.11 in 10.0 mi Calm Calm - N/A   Overcast
7:05 AM 33.8 °F 28.6 °F 30.2 °F 87% 30.15 in 1.8 mi WNW 5.8 mph - N/A   Overcast
7:08 AM 32.0 °F 27.5 °F 30.2 °F 93% 30.15 in 1.0 mi WNW 4.6 mph - N/A   Overcast
7:14 AM 32.0 °F - 30.2 °F 93% 30.15 in 0.5 mi Calm Calm - N/A Fog Fog
7:22 AM 32.0 °F 28.7 °F 30.2 °F 93% 30.16 in 0.5 mi WNW 3.5 mph - N/A Fog Fog
7:36 AM 32.0 °F 28.7 °F 30.2 °F 93% 30.16 in 0.2 mi West 3.5 mph - N/A Fog Fog
7:56 AM 31.1 °F 26.4 °F 31.1 °F 100% 30.13 in 0.2 mi WNW 4.6 mph - N/A Fog Light Freezing Fog
9:06 AM 32.0 °F 28.7 °F 32.0 °F 100% 30.18 in 0.2 mi SSW 3.5 mph - N/A Fog Fog
9:17 AM 33.8 °F - 32.0 °F 93% 30.19 in 0.2 mi Calm Calm - N/A Fog Fog
9:24 AM 33.8 °F - 32.0 °F 93% 30.19 in 0.2 mi Calm Calm - N/A Fog Fog
9:37 AM 33.8 °F 30.8 °F 33.8 °F 100% 30.20 in 0.2 mi Variable 3.5 mph - N/A Fog Fog
9:47 AM 33.8 °F 30.8 °F 33.8 °F 100% 30.21 in 0.8 mi South 3.5 mph - N/A   Overcast
9:56 AM 34.9 °F - 34.0 °F 97% 30.17 in 0.8 mi Calm Calm - N/A   Overcast
9:58 AM 35.6 °F - 33.8 °F 93% 30.21 in 1.2 mi Calm Calm - N/A   Overcast
10:00 AM 35.6 °F 32.8 °F 33.8 °F 93% 30.21 in 2.0 mi SSW 3.5 mph - N/A   Overcast
10:07 AM 33.8 °F 30.8 °F 33.8 °F 100% 30.22 in 10.0 mi South 3.5 mph - N/A   Overcast
11:13 AM 39.2 °F - 35.6 °F 87% 30.23 in 10.0 mi Calm Calm - N/A   Mostly Cloudy
11:40 AM 39.2 °F - 33.8 °F 81% 30.23 in 10.0 mi Calm Calm - N/A   Mostly Cloudy
11:56 AM 39.9 °F - 32.9 °F 76% 30.17 in 10.0 mi Calm Calm - N/A   Mostly Cloudy
12:56 PM 43.0 °F 40.3 °F 34.9 °F 73% 30.16 in 10.0 mi Variable 4.6 mph - N/A   Mostly Cloudy
1:40 PM 46.4 °F 43.5 °F 35.6 °F 66% 30.22 in 10.0 mi WSW 5.8 mph - N/A   Mostly Cloudy
2:16 PM 48.2 °F - 35.6 °F 62% 30.21 in 10.0 mi Variable 3.5 mph - N/A   Scattered Clouds
2:56 PM 47.8 °F - 34.9 °F 61% 30.12 in 10.0 mi East 4.6 mph - N/A   Mostly Cloudy
3:33 PM 48.2 °F - 35.6 °F 62% 30.22 in 10.0 mi ESE 3.5 mph - N/A   Mostly Cloudy
3:56 PM 47.8 °F - 34.0 °F 59% 30.14 in 10.0 mi Variable 3.5 mph - N/A   Mostly Cloudy
4:56 PM 47.8 °F - 34.9 °F 61% 30.15 in 10.0 mi NNE 4.6 mph - N/A   Overcast
6:56 PM 43.9 °F 39.9 °F 37.9 °F 80% 30.16 in 10.0 mi SE 6.9 mph - N/A   Overcast
7:56 PM 43.0 °F 38.8 °F 37.9 °F 82% 30.20 in 10.0 mi South 6.9 mph - N/A   Overcast
8:56 PM 39.9 °F 36.7 °F 36.9 °F 89% 30.22 in 10.0 mi SSE 4.6 mph - N/A   Overcast
9:56 PM 39.9 °F 36.7 °F 36.0 °F 86% 30.22 in 10.0 mi SSE 4.6 mph - N/A   Overcast
10:56 PM 36.9 °F 32.2 °F 32.9 °F 86% 30.21 in 10.0 mi ESE 5.8 mph - N/A   Mostly Cloudy
11:56 PM 36.9 °F 33.1 °F 34.9 °F 93% 30.19 in 10.0 mi ENE 4.6 mph - N/A   Mostly Cloudy